Location: Recife
(8.0585°S, 34.8848°W)
Time: 10:07:34
(UTC-03:00)

Vanguard 2 - Pass Details

Date: 18 April 2026
Orbit: 554 x 2894 km, 32.9° (Epoch: 8 May)

Event Time Altitude Azimuth Distance (km) Brightness Sun altitude
Rises 06:38:32 0° 248° (WSW) 5,621 11.3 17.7°
Reaches altitude 10° 06:43:10 10° 254° (WSW) 4,215 10.8 18.8°
Maximum altitude 06:52:31 37° 317° (NW) 1,897 9.5 21.1°
Drops below altitude 10° 06:58:29 10° 23° (NNE) 2,663 10.9 22.5°
Sets 07:00:47 0° 32° (NNE) 3,376 11.5 23.0°
